Погода в Твид-Хедсе

Австралия     28°11′09″S   153°31′32″E
темп.,
°C
ветер,
м/с
пор.,
м/с
влажн.,
%
обл.,
%
осадки,
мм/ч
давл.,
гПа
погр.,
м
13 мая, чт
чт1301:00+16юз229799 0.9 101462
04:00+16юз229635 1.0 101361
07:00+15юз119515 0.2 101348
10:00+21с02730 0.3 1013483
13:00+25сз36370 0.0 10101727
16:00+21зюз23530 0.0 1009197
19:00+14з22670 0.0 101240
22:00+13зюз22720 0.0 101252
14 мая, пт
пт1401:00+12зюз22720 0.0 101256
04:00+11зюз22720 0.0 101251
07:00+12зюз22690 0.0 101350
10:00+20юв01410 0.0 1014477
13:00+21всв22420 0.0 1012769
16:00+19в13590 0.0 1013161
19:00+14юз11750 0.0 1015130
22:00+12зюз21850 0.0 101640
15 мая, сб
сб1501:00+13з21820 0.0 101539
04:00+12зюз22810 0.0 101549
07:00+12зюз11810 0.0 101653
10:00+20с245512 0.0 1015835
13:00+22с344634 0.0 10131248
16:00+21сз12595 0.0 1012144
19:00+14юз2383100 0.0 101574
22:00+12ююз377242 0.0 1017137
16 мая, вс
вс1601:00+11ююз411760 0.0 1019301
04:00+9ююз412833 0.0 1020368
07:00+9юз37761 0.0 1022164
10:00+17ю37560 0.0 1022887
13:00+19ююв345232 0.0 10211400
16:00+17ююв35640 0.0 1021613
19:00+11ююз24904 0.0 1023120
22:00+10юз229219 0.0 102360
17 мая, пн
пн1701:00+11юз22894 0.0 102361
04:00+10зюз22896 0.0 102259
07:00+11юз22832 0.0 102456
10:00+19св11510 0.0 1023676
13:00+20всв32500 0.0 10211154
16:00+18вюв23630 0.0 1022269
19:00+13ююз23840 0.0 1025111
22:00+11ююз359014 0.0 1026101